This is the latest recevied weather packets stored in our database for station/object 4S6DRJ-13. If no packets are shown the sender has not sent any weather packets the latest 10 day(s).
| Time | Temp. | Humidity | Pressure | Rain* | Wind** | Luminosity | Snow |
|---|---|---|---|---|---|---|---|
| 1788191654 | 28.33° C | 82% | 1009.6 hPa | 0 mm | 1.34 m/s, 236° | 0 W/m² | - |
| 1788191593 | 28.33° C | 82% | 1009.7 hPa | 0 mm | 0.89 m/s, 216° | 0 W/m² | - |
| 1788191532 | 28.33° C | 82% | 1009.6 hPa | 0 mm | 0.45 m/s, 187° | 0 W/m² | - |
| 1788191471 | 28.33° C | 82% | 1009.8 hPa | 0 mm | 0.89 m/s, 222° | 0 W/m² | - |
| 1788191410 | 28.33° C | 82% | 1009.6 hPa | 0 mm | 0.45 m/s, 207° | 0 W/m² | - |
| 1788191349 | 28.33° C | 82% | 1009.7 hPa | 0 mm | 0.89 m/s, 228° | 0 W/m² | - |
| 1788191288 | 28.33° C | 82% | 1009.7 hPa | 0 mm | 0.45 m/s, 215° | 0 W/m² | - |
| 1788191227 | 28.33° C | 82% | 1009.6 hPa | 0 mm | 0 m/s | 0 W/m² | - |
| 1788191166 | 28.33° C | 82% | 1009.7 hPa | 0 mm | 0.45 m/s, 313° | 0 W/m² | - |
| 1788191105 | 28.33° C | 81% | 1009.6 hPa | 0 mm | 1.34 m/s, 198° | 0 W/m² | - |
| 1788191044 | 28.33° C | 81% | 1009.8 hPa | 0 mm | 0.89 m/s, 222° | 0 W/m² | - |
| 1788190982 | 28.33° C | 81% | 1009.5 hPa | 0 mm | 0.45 m/s, 226° | 0 W/m² | - |
| 1788190922 | 28.33° C | 81% | 1009.6 hPa | 0 mm | 0.45 m/s, 159° | 0 W/m² | - |
| 1788190861 | 28.33° C | 81% | 1009.7 hPa | 0 mm | 0.89 m/s, 203° | 0 W/m² | - |
| 1788190800 | 28.33° C | 81% | 1009.4 hPa | 0 mm | 0.45 m/s, 144° | 0 W/m² | - |
| 1788190739 | 28.33° C | 81% | 1009.5 hPa | 0 mm | 0.45 m/s, 237° | 0 W/m² | - |
| 1788190678 | 28.33° C | 81% | 1009.5 hPa | 0 mm | 0.89 m/s, 249° | 0 W/m² | - |
| 1788190617 | 28.33° C | 81% | 1009.4 hPa | 0 mm | 0 m/s | 0 W/m² | - |
| 1788190556 | 28.33° C | 81% | 1009.4 hPa | 0 mm | 0.45 m/s, 228° | 0 W/m² | - |
| 1788190495 | 28.33° C | 81% | 1009.5 hPa | 0 mm | 0 m/s | 0 W/m² | - |
| 1788190434 | 28.33° C | 81% | 1009.5 hPa | 0 mm | 0 m/s | 0 W/m² | - |
| 1788190373 | 28.33° C | 81% | 1009.3 hPa | 0 mm | 0.89 m/s, 213° | 0 W/m² | - |
| 1788190312 | 28.33° C | 81% | 1009.5 hPa | 0 mm | 0 m/s | 0 W/m² | - |
| 1788190251 | 28.33° C | 81% | 1009.4 hPa | 0 mm | 0.45 m/s, 232° | 0 W/m² | - |
| 1788190191 | 28.33° C | 81% | 1009.6 hPa | 0 mm | 0.45 m/s, 305° | 0 W/m² | - |
* Rain latest hour (hover to see other rain measurements)
** Current wind speed in m/s (hover to see current wind gust speed)